Weather History for KOMA - May, 2013

Change the Weather History Date:

Wednesday, May 15, 2013

  Actual Average Record
Temperature  
Mean Temperature 73 °F 62 °F  
Max Temperature 85 °F 74 °F 94 °F (1944)
Min Temperature 60 °F 51 °F 33 °F (1907)
Degree Days  
Heating Degree Days 0 5  
Month to date heating degree days 159 97  
Since 1 July heating degree days 6116 6099  
Cooling Degree Days 8 2  
Month to date cooling degree days 24 19  
Year to date cooling degree days 31 35  
Growing Degree Days 22 (Base 50)    
Moisture  
Dew Point 42 °F    
Average Humidity 41    
Maximum Humidity 63    
Minimum Humidity 18    
Precipitation  
Precipitation 0.00 in 0.16 in 2.32 in (1943)
Month to date precipitation 2.32 2.20  
Year to date precipitation 10.92 8.72  
Snow  
Snow 0.00 in 0.00 in - ()
Month to date snowfall 3.1 0.1  
Since 1 July snowfall 35.7 26.5  
Snow Depth 0.00 in    
Sea Level Pressure  
Sea Level Pressure 29.83 in    
Wind  
Wind Speed 9 mph (ENE)    
Max Wind Speed 22 mph    
Max Gust Speed 26 mph    
Visibility 10 miles    
Events      
T = Trace of Precipitation, MM = Missing Value Source: NWS Daily Summary

Daily Weather History Graph

Daily Weather History Graph

Search for Another Location

Airport or City:

Trip Planner

Search our weather history database for the weather conditions in past years. The results will help you decide how hot, cold, wet, or windy it might be!

Date:

Astronomy

May. 15, 2013 Rise Set
Actual Time 6:04 AM CDT 8:35 PM CDT
Civil Twilight 5:33 AM CDT 9:07 PM CDT
Nautical Twilight 4:54 AM CDT 9:46 PM CDT
Astronomical Twilight 4:10 AM CDT 10:30 PM CDT
Moon 10:41 AM CDT (5/15) 12:22 AM CDT (5/15)
Length of Visible Light 15h 34m
Length of Day
14h 31m
Waxing Crescent, 27% of the Moon is Illuminated
May 15
Waxing Crescent
May 17
First Quarter
May 24
Full
May 31
Last Quarter
Jun 8
New

Hourly Weather History & Observations

Time (CDT) Temp. Dew Point Humidity Pressure Visibility Wind Dir Wind Speed Gust Speed Precip Events Conditions
12:52 AM 77.0 °F 44.1 °F 31% 29.76 in 10.0 mi Calm Calm - N/A   Mostly Cloudy
1:52 AM 69.1 °F 46.9 °F 45% 29.78 in 10.0 mi Calm Calm - N/A   Scattered Clouds
2:52 AM 64.9 °F 52.0 °F 63% 29.78 in 10.0 mi Calm Calm - N/A   Partly Cloudy
3:52 AM 64.0 °F 52.0 °F 65% 29.79 in 10.0 mi Calm Calm - N/A   Partly Cloudy
4:52 AM 63.0 °F 43.0 °F 48% 29.82 in 10.0 mi North 4.6 mph - N/A   Partly Cloudy
5:52 AM 61.0 °F 42.1 °F 50% 29.86 in 10.0 mi North 9.2 mph - N/A   Partly Cloudy
6:52 AM 62.1 °F 44.1 °F 52% 29.87 in 10.0 mi NNW 4.6 mph - N/A   Mostly Cloudy
7:52 AM 64.9 °F 45.0 °F 48% 29.86 in 10.0 mi NNE 8.1 mph - N/A   Mostly Cloudy
8:52 AM 68.0 °F 46.0 °F 45% 29.89 in 10.0 mi NNE 12.7 mph - N/A   Mostly Cloudy
9:52 AM 72.0 °F 43.0 °F 35% 29.91 in 10.0 mi NE 16.1 mph 20.7 mph N/A   Mostly Cloudy
10:52 AM 75.0 °F 37.9 °F 26% 29.89 in 10.0 mi NE 18.4 mph - N/A   Mostly Cloudy
11:52 AM 78.1 °F 37.0 °F 23% 29.89 in 10.0 mi ENE 13.8 mph 24.2 mph N/A   Mostly Cloudy
12:52 PM 80.1 °F 36.0 °F 20% 29.87 in 10.0 mi East 16.1 mph 25.3 mph N/A   Mostly Cloudy
1:52 PM 82.0 °F 36.0 °F 19% 29.84 in 10.0 mi ENE 17.3 mph 21.9 mph N/A   Mostly Cloudy
2:52 PM 82.9 °F 36.0 °F 19% 29.83 in 10.0 mi ESE 10.4 mph 24.2 mph N/A   Mostly Cloudy
3:52 PM 84.0 °F 37.0 °F 19% 29.81 in 10.0 mi East 15.0 mph - N/A   Scattered Clouds
4:52 PM 84.9 °F 37.0 °F 18% 29.81 in 10.0 mi East 12.7 mph 17.3 mph N/A   Mostly Cloudy
5:52 PM 84.0 °F 39.9 °F 21% 29.81 in 10.0 mi SE 9.2 mph - N/A   Mostly Cloudy
6:52 PM 81.0 °F 44.1 °F 27% 29.80 in 10.0 mi ESE 9.2 mph - N/A   Mostly Cloudy
7:52 PM 79.0 °F 43.0 °F 28% 29.80 in 10.0 mi East 9.2 mph - N/A   Mostly Cloudy
8:52 PM 75.0 °F 43.0 °F 32% 29.80 in 10.0 mi East 5.8 mph - N/A   Mostly Cloudy
9:52 PM 73.9 °F 43.0 °F 33% 29.82 in 10.0 mi ESE 3.5 mph - N/A   Scattered Clouds
10:52 PM 71.1 °F 44.1 °F 38% 29.82 in 10.0 mi SE 5.8 mph - N/A   Scattered Clouds
11:52 PM 72.0 °F 45.0 °F 38% 29.84 in 10.0 mi ENE 4.6 mph - N/A   Mostly Cloudy